Terug naar catalogus

YUNHAI 2-2D

ActiefWeerLEO
NORAD 59283·PAYLOAD·🇨🇳 China

Gelanceerd Mar 21, 2024 vanaf Jiuquan Satellite Launch Center

Loading…

Volgende Passages (komende 24 uur)

TLE

VersSource: Space-Track

Epoch: Sep 14, 2026, 12:50 UTC

1 59283U 24052D   26257.53529231 -.00000087  00000-0  29600-4 0  9999
2 59283  50.0061 243.6898 0004456 178.8962 181.1963 14.28021976131162

Volg YUNHAI 2-2D in realtime met AllMySat

Download on the App Store